Time,TemperatureF,DewpointF,PressureIn,WindDirection,WindDirectionDegrees,WindSpeedMPH,WindSpeedGustMPH,Humidity,HourlyPrecipIn,Conditions,Clouds,dailyrainin,SoftwareType,DateUTC
2013-02-19 00:00:00,31.5,19.6,30.18,WSW,248,14.0,20.0,61,0.00,,SKC,0.00,VWS V13.01,2013-02-19 05:00:00,
2013-02-19 00:10:00,31.7,20.2,30.18,WSW,248,13.0,20.0,62,0.00,,SKC,0.00,VWS V13.01,2013-02-19 05:10:00,
2013-02-19 00:20:00,31.8,18.7,30.18,WSW,248,14.0,22.0,58,0.00,,SKC,0.00,VWS V13.01,2013-02-19 05:20:00,
2013-02-19 00:30:00,32.0,18.5,30.18,WSW,248,13.0,19.0,57,0.00,,SKC,0.00,VWS V13.01,2013-02-19 05:30:00,
2013-02-19 00:40:00,32.3,18.0,30.18,WSW,248,13.0,22.0,55,0.00,,SKC,0.00,VWS V13.01,2013-02-19 05:40:00,
2013-02-19 00:50:00,32.4,18.0,30.18,WSW,248,14.0,25.0,55,0.00,,SKC,0.00,VWS V13.01,2013-02-19 05:50:00,
2013-02-19 01:00:00,32.4,18.5,30.18,WSW,248,15.0,23.0,56,0.00,,SKC,0.00,VWS V13.01,2013-02-19 06:00:00,
2013-02-19 01:10:00,32.5,19.8,30.18,WSW,248,15.0,23.0,59,0.00,,SKC,0.00,VWS V13.01,2013-02-19 06:10:00,
2013-02-19 01:20:00,32.4,20.1,30.18,WSW,248,14.0,22.0,60,0.00,,SKC,0.00,VWS V13.01,2013-02-19 06:20:00,
2013-02-19 01:30:00,32.5,19.4,30.17,WSW,248,14.0,21.0,58,0.00,,SKC,0.00,VWS V13.01,2013-02-19 06:30:00,
2013-02-19 01:40:00,32.6,19.9,30.17,WSW,248,13.0,20.0,59,0.00,,SKC,0.00,VWS V13.01,2013-02-19 06:40:00,
2013-02-19 01:50:00,32.5,19.8,30.17,WSW,248,15.0,23.0,59,0.00,,SKC,0.00,VWS V13.01,2013-02-19 06:50:00,
2013-02-19 02:00:00,32.5,20.2,30.17,WSW,248,13.0,22.0,60,0.00,,SKC,0.00,VWS V13.01,2013-02-19 07:00:00,
2013-02-19 02:10:00,32.5,20.2,30.16,WSW,248,11.0,17.0,60,0.00,,SKC,0.00,VWS V13.01,2013-02-19 07:10:00,
2013-02-19 02:20:00,32.6,19.9,30.16,WSW,248,11.0,19.0,59,0.00,,SKC,0.00,VWS V13.01,2013-02-19 07:20:00,
2013-02-19 02:30:00,32.6,21.0,30.15,WSW,248,9.0,14.0,62,0.00,,SKC,0.00,VWS V13.01,2013-02-19 07:30:00,
2013-02-19 02:40:00,32.5,20.2,30.15,WSW,248,11.0,19.0,60,0.00,,SKC,0.00,VWS V13.01,2013-02-19 07:40:00,
2013-02-19 02:50:00,32.4,20.9,30.15,WSW,248,9.0,15.0,62,0.00,,SKC,0.00,VWS V13.01,2013-02-19 07:50:00,
2013-02-19 03:00:00,32.3,20.4,30.14,WSW,248,7.0,11.0,61,0.00,,SKC,0.00,VWS V13.01,2013-02-19 08:00:00,
2013-02-19 03:10:00,32.2,21.0,30.14,WSW,248,5.0,8.0,63,0.00,,SKC,0.00,VWS V13.01,2013-02-19 08:10:00,
2013-02-19 03:20:00,32.0,21.9,30.14,WSW,248,6.0,10.0,66,0.00,,SKC,0.00,VWS V13.01,2013-02-19 08:20:00,
2013-02-19 03:30:00,32.0,22.6,30.13,SW,225,8.0,11.0,68,0.00,,SKC,0.00,VWS V13.01,2013-02-19 08:30:00,
2013-02-19 03:40:00,32.1,20.6,30.13,SW,225,10.0,13.0,62,0.00,,SKC,0.00,VWS V13.01,2013-02-19 08:40:00,
2013-02-19 04:00:00,32.6,21.0,30.14,WSW,248,10.0,16.0,62,0.00,,SKC,0.00,VWS V13.01,2013-02-19 09:00:00,
2013-02-19 04:10:00,32.9,20.9,30.14,WSW,248,9.0,15.0,61,0.00,,SKC,0.00,VWS V13.01,2013-02-19 09:10:00,
2013-02-19 04:20:00,32.9,21.7,30.13,WSW,248,9.0,16.0,63,0.00,,SKC,0.00,VWS V13.01,2013-02-19 09:20:00,
2013-02-19 04:30:00,32.8,23.1,30.13,WSW,248,8.0,11.0,67,0.00,,SKC,0.00,VWS V13.01,2013-02-19 09:30:00,
2013-02-19 04:40:00,32.7,24.4,30.14,WSW,248,7.0,11.0,71,0.00,,SKC,0.00,VWS V13.01,2013-02-19 09:40:00,
2013-02-19 04:50:00,32.6,24.9,30.14,WSW,248,6.0,10.0,73,0.00,,SKC,0.00,VWS V13.01,2013-02-19 09:50:00,
2013-02-19 05:00:00,32.8,25.8,30.14,WSW,248,6.0,10.0,75,0.00,,SKC,0.00,VWS V13.01,2013-02-19 10:00:00,
2013-02-19 05:10:00,32.7,26.3,30.14,WSW,248,5.0,9.0,77,0.00,,SKC,0.00,VWS V13.01,2013-02-19 10:10:00,
2013-02-19 05:20:00,32.8,27.0,30.14,WSW,248,7.0,11.0,79,0.00,,SKC,0.00,VWS V13.01,2013-02-19 10:20:00,
2013-02-19 05:30:00,33.1,27.6,30.14,WSW,248,8.0,12.0,80,0.00,,SKC,0.00,VWS V13.01,2013-02-19 10:30:00,
2013-02-19 05:40:00,33.4,28.5,30.14,SW,225,8.0,11.0,82,0.00,,SKC,0.00,VWS V13.01,2013-02-19 10:40:00,
2013-02-19 05:50:00,33.8,28.9,30.13,SW,225,8.0,11.0,82,0.00,,SKC,0.00,VWS V13.01,2013-02-19 10:50:00,
2013-02-19 06:00:00,34.1,29.2,30.12,SW,225,9.0,11.0,82,0.00,,SKC,0.00,VWS V13.01,2013-02-19 11:00:00,
2013-02-19 06:10:00,34.3,29.7,30.12,SW,225,10.0,15.0,83,0.00,,SKC,0.00,VWS V13.01,2013-02-19 11:10:00,
2013-02-19 06:20:00,35.4,29.5,30.11,SW,225,12.0,15.0,79,0.00,,SKC,0.00,VWS V13.01,2013-02-19 11:20:00,
2013-02-19 06:30:00,35.7,30.5,30.11,SW,225,12.0,16.0,81,0.00,,SKC,0.00,VWS V13.01,2013-02-19 11:30:00,
2013-02-19 06:40:00,36.1,30.5,30.10,SW,225,12.0,17.0,80,0.00,,SKC,0.00,VWS V13.01,2013-02-19 11:40:00,
2013-02-19 06:50:00,36.5,30.9,30.10,SSW,202,13.0,18.0,80,0.00,,SKC,0.00,VWS V13.01,2013-02-19 11:50:00,
2013-02-19 07:00:00,36.8,31.2,30.09,SSW,202,13.0,17.0,80,0.00,,SKC,0.00,VWS V13.01,2013-02-19 12:00:00,
2013-02-19 07:10:00,37.0,31.4,30.09,SSW,202,11.0,15.0,80,0.00,,SKC,0.00,VWS V13.01,2013-02-19 12:10:00,
2013-02-19 07:20:00,37.2,31.6,30.09,SSW,202,12.0,17.0,80,0.00,,SKC,0.00,VWS V13.01,2013-02-19 12:20:00,
2013-02-19 07:30:00,37.9,32.3,30.09,SSW,202,12.0,16.0,80,0.00,,SKC,0.00,VWS V13.01,2013-02-19 12:30:00,
2013-02-19 07:40:00,38.4,33.1,30.09,SSW,202,11.0,14.0,81,0.00,,SKC,0.00,VWS V13.01,2013-02-19 12:40:00,
2013-02-19 07:50:00,38.9,33.9,30.09,SSW,202,11.0,15.0,82,0.00,,SKC,0.00,VWS V13.01,2013-02-19 12:50:00,
2013-02-19 08:00:00,39.5,34.5,30.09,SSW,202,12.0,17.0,82,0.00,,SKC,0.00,VWS V13.01,2013-02-19 13:00:00,
2013-02-19 08:10:00,40.0,34.7,30.09,SSW,202,12.0,17.0,81,0.00,,SKC,0.00,VWS V13.01,2013-02-19 13:10:00,
2013-02-19 08:20:00,40.4,35.0,30.08,SSW,202,15.0,20.0,81,0.00,,SKC,0.00,VWS V13.01,2013-02-19 13:20:00,
2013-02-19 08:30:00,40.7,35.6,30.08,SSW,202,14.0,18.0,82,0.00,,SKC,0.00,VWS V13.01,2013-02-19 13:30:00,
2013-02-19 08:40:00,41.2,36.1,30.08,SSW,202,14.0,20.0,82,0.00,,SKC,0.00,VWS V13.01,2013-02-19 13:40:00,
2013-02-19 08:50:00,41.5,36.4,30.08,SSW,202,13.0,18.0,82,0.00,,SKC,0.00,VWS V13.01,2013-02-19 13:50:00,
2013-02-19 09:00:00,41.9,36.8,30.08,SSW,202,13.0,17.0,82,0.00,,SKC,0.00,VWS V13.01,2013-02-19 14:00:00,
2013-02-19 09:10:00,42.0,36.9,30.07,SSW,202,12.0,17.0,82,0.00,,SKC,0.00,VWS V13.01,2013-02-19 14:10:00,
2013-02-19 09:20:00,42.4,37.6,30.07,SSW,202,12.0,15.0,83,0.00,,SKC,0.00,VWS V13.01,2013-02-19 14:20:00,
2013-02-19 09:30:00,42.5,37.4,30.07,SSW,202,13.0,17.0,82,0.00,,SKC,0.00,VWS V13.01,2013-02-19 14:30:00,
2013-02-19 09:40:00,42.7,37.6,30.06,SSW,202,13.0,18.0,82,0.00,,SKC,0.00,VWS V13.01,2013-02-19 14:40:00,
2013-02-19 09:50:00,42.8,37.7,30.06,SSW,202,13.0,17.0,82,0.00,,SKC,0.00,VWS V13.01,2013-02-19 14:50:00,
2013-02-19 10:00:00,42.6,37.8,30.06,SSW,202,14.0,19.0,83,0.00,,SKC,0.00,VWS V13.01,2013-02-19 15:00:00,
2013-02-19 10:10:00,42.7,37.6,30.05,SSW,202,17.0,22.0,82,0.00,,SKC,0.00,VWS V13.01,2013-02-19 15:10:00,
2013-02-19 10:20:00,42.7,37.9,30.05,SSW,202,17.0,22.0,83,0.00,,SKC,0.00,VWS V13.01,2013-02-19 15:20:00,
2013-02-19 10:30:00,42.8,38.0,30.05,SSW,202,17.0,23.0,83,0.00,,SKC,0.00,VWS V13.01,2013-02-19 15:30:00,
2013-02-19 10:40:00,43.0,38.5,30.05,SSW,202,15.0,21.0,84,0.00,,SKC,0.00,VWS V13.01,2013-02-19 15:40:00,
2013-02-19 10:50:00,43.1,38.3,30.04,SSW,202,16.0,21.0,83,0.00,,SKC,0.00,VWS V13.01,2013-02-19 15:50:00,
2013-02-19 11:00:00,43.7,38.9,30.04,SSW,202,17.0,22.0,83,0.00,,SKC,0.00,VWS V13.01,2013-02-19 16:00:00,
2013-02-19 11:10:00,43.5,38.4,30.03,SSW,202,17.0,24.0,82,0.00,,SKC,0.00,VWS V13.01,2013-02-19 16:10:00,
2013-02-19 11:20:00,43.4,38.6,30.03,SSW,202,15.0,21.0,83,0.00,,SKC,0.00,VWS V13.01,2013-02-19 16:20:00,
2013-02-19 11:40:00,43.0,38.5,30.01,SSW,202,16.0,21.0,84,0.00,,SKC,0.00,VWS V13.01,2013-02-19 16:40:00,
2013-02-19 11:50:00,42.9,38.4,30.01,SSW,202,16.0,22.0,84,0.00,,SKC,0.00,VWS V13.01,2013-02-19 16:50:00,
2013-02-19 12:00:00,43.3,38.2,30.00,SSW,202,18.0,26.0,82,0.00,,SKC,0.00,VWS V13.01,2013-02-19 17:00:00,
2013-02-19 12:10:00,43.6,38.2,29.99,SSW,202,18.0,27.0,81,0.00,,SKC,0.00,VWS V13.01,2013-02-19 17:10:00,
2013-02-19 12:20:00,43.8,38.4,29.99,SSW,202,17.0,24.0,81,0.00,,SKC,0.00,VWS V13.01,2013-02-19 17:20:00,
2013-02-19 12:30:00,44.5,38.4,29.98,SSW,202,19.0,26.0,79,0.00,,SKC,0.00,VWS V13.01,2013-02-19 17:30:00,
2013-02-19 12:40:00,44.0,38.2,29.97,SSW,202,17.0,26.0,80,0.00,,SKC,0.00,VWS V13.01,2013-02-19 17:40:00,
2013-02-19 12:50:00,43.2,38.4,29.97,SSW,202,15.0,22.0,83,0.00,,SKC,0.00,VWS V13.01,2013-02-19 17:50:00,
2013-02-19 13:00:00,42.7,38.5,29.96,South,180,14.0,19.0,85,0.00,,SKC,0.00,VWS V13.01,2013-02-19 18:00:00,
2013-02-19 13:10:00,42.4,38.2,29.96,South,180,14.0,19.0,85,0.00,,SKC,0.00,VWS V13.01,2013-02-19 18:10:00,
2013-02-19 13:20:00,42.9,38.7,29.95,South,180,15.0,19.0,85,0.00,,SKC,0.00,VWS V13.01,2013-02-19 18:20:00,
2013-02-19 13:30:00,42.9,39.0,29.94,South,180,15.0,19.0,86,0.00,,SKC,0.00,VWS V13.01,2013-02-19 18:30:00,
2013-02-19 13:40:00,43.4,39.2,29.94,South,180,14.0,21.0,85,0.00,,SKC,0.00,VWS V13.01,2013-02-19 18:40:00,
2013-02-19 13:50:00,42.8,39.2,29.93,South,180,14.0,18.0,87,0.00,,SKC,0.00,VWS V13.01,2013-02-19 18:50:00,
2013-02-19 14:00:00,42.6,39.3,29.92,South,180,15.0,21.0,88,0.00,,SKC,0.00,VWS V13.01,2013-02-19 19:00:00,
2013-02-19 14:10:00,42.8,39.5,29.91,South,180,15.0,21.0,88,0.00,,SKC,0.00,VWS V13.01,2013-02-19 19:10:00,
2013-02-19 14:20:00,43.2,40.2,29.91,South,180,16.0,25.0,89,0.00,,SKC,0.00,VWS V13.01,2013-02-19 19:20:00,
2013-02-19 14:30:00,43.1,40.1,29.90,South,180,16.0,23.0,89,0.00,,SKC,0.00,VWS V13.01,2013-02-19 19:30:00,
2013-02-19 14:40:00,43.0,40.0,29.90,South,180,18.0,24.0,89,0.00,,SKC,0.00,VWS V13.01,2013-02-19 19:40:00,
2013-02-19 14:50:00,43.0,40.3,29.89,South,180,18.0,24.0,90,0.00,,SKC,0.00,VWS V13.01,2013-02-19 19:50:00,
2013-02-19 15:00:00,43.4,40.7,29.88,South,180,19.0,26.0,90,0.00,,SKC,0.00,VWS V13.01,2013-02-19 20:00:00,
2013-02-19 15:10:00,43.2,40.5,29.88,South,180,18.0,24.0,90,0.00,,SKC,0.00,VWS V13.01,2013-02-19 20:10:00,
2013-02-19 15:20:00,43.1,40.4,29.87,South,180,18.0,25.0,90,0.00,,SKC,0.00,VWS V13.01,2013-02-19 20:20:00,
2013-02-19 15:30:00,43.8,41.3,29.87,SSW,202,20.0,29.0,91,0.00,,SKC,0.00,VWS V13.01,2013-02-19 20:30:00,
2013-02-19 15:40:00,44.3,41.6,29.87,SSW,202,19.0,27.0,90,0.00,,SKC,0.00,VWS V13.01,2013-02-19 20:40:00,
2013-02-19 15:50:00,44.5,41.8,29.86,SSW,202,21.0,27.0,90,0.00,,SKC,0.00,VWS V13.01,2013-02-19 20:50:00,
2013-02-19 16:00:00,44.1,41.7,29.86,SSW,202,18.0,28.0,91,0.00,,SKC,0.00,VWS V13.01,2013-02-19 21:00:00,
2013-02-19 16:10:00,43.6,41.4,29.85,SSW,202,16.0,22.0,92,0.01,,SKC,0.01,VWS V13.01,2013-02-19 21:10:00,
2013-02-19 16:20:00,43.1,41.2,29.83,South,180,17.0,23.0,93,0.01,,SKC,0.01,VWS V13.01,2013-02-19 21:20:00,
2013-02-19 16:30:00,43.3,41.7,29.83,South,180,19.0,28.0,94,0.01,,SKC,0.01,VWS V13.01,2013-02-19 21:30:00,
2013-02-19 16:40:00,43.2,41.6,29.81,South,180,19.0,27.0,94,0.02,,SKC,0.02,VWS V13.01,2013-02-19 21:40:00,
2013-02-19 16:50:00,43.0,41.4,29.79,South,180,19.0,26.0,94,0.02,,SKC,0.02,VWS V13.01,2013-02-19 21:50:00,
2013-02-19 17:00:00,43.4,42.1,29.78,South,180,19.0,27.0,95,0.02,,SKC,0.02,VWS V13.01,2013-02-19 22:00:00,
2013-02-19 17:10:00,43.2,41.9,29.77,SSE,158,15.0,22.0,95,0.02,,SKC,0.02,VWS V13.01,2013-02-19 22:10:00,
2013-02-19 17:20:00,43.3,42.0,29.77,SSE,158,14.0,21.0,95,0.01,,SKC,0.02,VWS V13.01,2013-02-19 22:20:00,
2013-02-19 17:30:00,43.5,42.4,29.75,SSE,158,14.0,22.0,96,0.01,,SKC,0.02,VWS V13.01,2013-02-19 22:30:00,
2013-02-19 17:40:00,43.7,42.6,29.75,SSE,158,14.0,21.0,96,0.01,,SKC,0.02,VWS V13.01,2013-02-19 22:40:00,
2013-02-19 17:50:00,43.8,42.7,29.74,SSE,158,15.0,22.0,96,0.00,,SKC,0.02,VWS V13.01,2013-02-19 22:50:00,
2013-02-19 18:00:00,44.3,43.2,29.73,South,180,19.0,30.0,96,0.00,,SKC,0.02,VWS V13.01,2013-02-19 23:00:00,
2013-02-19 18:10:00,44.3,43.2,29.73,South,180,23.0,35.0,96,0.00,,SKC,0.02,VWS V13.01,2013-02-19 23:10:00,
2013-02-19 18:20:00,44.3,43.2,29.72,South,180,22.0,34.0,96,0.02,,SKC,0.04,VWS V13.01,2013-02-19 23:20:00,
2013-02-19 18:30:00,44.3,43.2,29.71,South,180,21.0,33.0,96,0.03,,SKC,0.05,VWS V13.01,2013-02-19 23:30:00,
2013-02-19 18:40:00,44.5,43.4,29.71,South,180,23.0,34.0,96,0.05,,SKC,0.07,VWS V13.01,2013-02-19 23:40:00,
2013-02-19 18:50:00,44.5,43.4,29.72,South,180,26.0,34.0,96,0.11,,SKC,0.13,VWS V13.01,2013-02-19 23:50:00,
2013-02-19 19:00:00,45.4,44.3,29.72,SW,225,20.0,30.0,96,0.17,,SKC,0.19,VWS V13.01,2013-02-20 00:00:00,
2013-02-19 19:10:00,46.2,45.1,29.72,SW,225,21.0,30.0,96,0.26,,SKC,0.28,VWS V13.01,2013-02-20 00:10:00,
2013-02-19 19:20:00,46.0,44.7,29.70,SW,225,20.0,29.0,95,0.32,,SKC,0.34,VWS V13.01,2013-02-20 00:20:00,
2013-02-19 19:30:00,44.9,43.6,29.68,SSW,202,16.0,25.0,95,0.34,,SKC,0.38,VWS V13.01,2013-02-20 00:30:00,
2013-02-19 19:40:00,45.1,44.0,29.68,SSW,202,12.0,21.0,96,0.35,,SKC,0.40,VWS V13.01,2013-02-20 00:40:00,
2013-02-19 19:50:00,44.3,43.0,29.67,South,180,15.0,23.0,95,0.34,,SKC,0.41,VWS V13.01,2013-02-20 00:50:00,
2013-02-19 20:00:00,44.9,44.1,29.66,South,180,17.0,27.0,97,0.28,,SKC,0.41,VWS V13.01,2013-02-20 01:00:00,
2013-02-19 20:20:00,43.6,42.5,29.63,South,180,17.0,24.0,96,0.15,,SKC,0.43,VWS V13.01,2013-02-20 01:20:00,
2013-02-19 20:30:00,43.9,43.1,29.62,South,180,18.0,25.0,97,0.10,,SKC,0.44,VWS V13.01,2013-02-20 01:30:00,
2013-02-19 20:50:00,44.6,43.8,29.61,SSW,202,19.0,30.0,97,0.08,,SKC,0.48,VWS V13.01,2013-02-20 01:50:00,
2013-02-19 21:00:00,45.0,44.2,29.61,SSW,202,23.0,29.0,97,0.08,,SKC,0.49,VWS V13.01,2013-02-20 02:00:00,
2013-02-19 21:10:00,46.2,45.4,29.62,SW,225,20.0,28.0,97,0.09,,SKC,0.50,VWS V13.01,2013-02-20 02:10:00,
2013-02-19 21:20:00,45.5,44.7,29.63,WSW,248,17.0,26.0,97,0.08,,SKC,0.51,VWS V13.01,2013-02-20 02:20:00,
2013-02-19 21:30:00,44.8,44.0,29.62,WSW,248,15.0,24.0,97,0.09,,SKC,0.52,VWS V13.01,2013-02-20 02:30:00,
2013-02-19 21:40:00,44.4,43.6,29.61,WSW,248,13.0,19.0,97,0.08,,SKC,0.52,VWS V13.01,2013-02-20 02:40:00,
2013-02-19 21:50:00,44.0,43.2,29.60,WSW,248,10.0,17.0,97,0.06,,SKC,0.52,VWS V13.01,2013-02-20 02:50:00,
2013-02-19 22:00:00,43.8,43.0,29.60,WSW,248,10.0,16.0,97,0.04,,SKC,0.52,VWS V13.01,2013-02-20 03:00:00,
2013-02-19 22:10:00,43.6,42.8,29.60,WSW,248,11.0,16.0,97,0.03,,SKC,0.52,VWS V13.01,2013-02-20 03:10:00,
2013-02-19 22:20:00,43.3,42.5,29.60,WSW,248,11.0,18.0,97,0.02,,SKC,0.52,VWS V13.01,2013-02-20 03:20:00,
2013-02-19 22:30:00,43.2,42.4,29.60,WSW,248,12.0,18.0,97,0.01,,SKC,0.52,VWS V13.01,2013-02-20 03:30:00,
2013-02-19 22:40:00,42.8,42.0,29.60,WSW,248,12.0,20.0,97,0.00,,SKC,0.52,VWS V13.01,2013-02-20 03:40:00,
2013-02-19 22:50:00,42.5,41.7,29.60,WSW,248,11.0,18.0,97,0.00,,SKC,0.52,VWS V13.01,2013-02-20 03:50:00,
2013-02-19 23:00:00,42.4,41.6,29.59,West,270,11.0,17.0,97,0.00,,SKC,0.52,VWS V13.01,2013-02-20 04:00:00,
2013-02-19 23:10:00,42.5,41.7,29.59,West,270,9.0,16.0,97,0.00,,SKC,0.52,VWS V13.01,2013-02-20 04:10:00,
2013-02-19 23:20:00,42.5,41.7,29.59,West,270,8.0,13.0,97,0.00,,SKC,0.52,VWS V13.01,2013-02-20 04:20:00,
2013-02-19 23:30:00,41.9,41.1,29.60,WSW,248,8.0,13.0,97,0.00,,SKC,0.52,VWS V13.01,2013-02-20 04:30:00,
2013-02-19 23:40:00,41.6,40.8,29.59,West,270,9.0,17.0,97,0.00,,SKC,0.52,VWS V13.01,2013-02-20 04:40:00,
2013-02-19 23:50:00,41.4,40.6,29.59,West,270,7.0,17.0,97,0.00,,SKC,0.52,VWS V13.01,2013-02-20 04:50:00,